Wetbulb
54.63 52.69 52.93 56.49 60.44 60.27 58.25 58.19 56.70 58.48 61.64 63.13 62.63 62.64 65.25 66.28 66.22 66.16 67.07 67.14 67.89 68.82 71.16 72.05 72.60 71.89 72.30 72.96 73.32 74.28 75.06 76.22 76.22 74.82 73.92 74.22 73.89 75.18 75.59 76.22 76.71 77.38 77.09 77.25
52.49 50.69 55.63 58.31 59.28 59.10 58.43 57.36 57.35 59.10 61.23 62.44 61.23 61.26 64.40 66.75 65.97 65.87 66.57 67.43 68.42 69.28 70.31 71.25 72.09 72.10 71.69 71.85 73.17 73.86 74.53 75.60 76.22 75.21 75.17 75.26 75.66 75.25 74.45 75.10 77.03 77.51 77.02 77.33
50.19 53.25 55.55 56.67 56.96 57.05 57.57 56.97 56.75 57.16 60.70 62.71 60.76 59.44 62.47 66.37 67.16 65.84 66.37 67.74 68.71 69.21 69.54 70.62 71.10 71.65 71.93 71.71 72.22 73.19 73.90 74.19 75.47 75.97 75.45 75.58 75.48 74.90 72.71 73.08 74.14 75.90 76.56 76.54
51.10 54.66 53.52 55.34 55.44 57.66 55.31 58.55 57.44 57.80 57.88 54.72 61.04 53.67 61.22 64.83 65.11 64.90 65.38 65.66 66.97 68.69 70.22 70.61 70.84 71.34 71.91 72.22 72.05 72.99 73.76 73.83 74.18 75.47 74.75 74.88 73.19 71.64 73.26 74.41 75.61 75.57 76.89 76.39
49.93 51.32 52.31 52.92 55.44 58.36 56.37 58.43 57.94 57.63 57.30 57.26 57.42 55.39 57.73 64.21 63.60 64.64 65.91 66.15 66.33 68.06 69.72 70.17 70.81 71.31 72.12 72.34 71.65 72.20 73.47 73.95 74.17 74.59 74.87 73.27 73.81 73.49 73.78 74.23 74.94 76.63 77.28 77.36
51.62 55.03 54.49 54.15 57.31 58.56 59.46 57.49 57.75 57.92 56.73 52.72 55.81 56.16 55.90 60.23 62.92 65.75 66.50 67.47 66.90 67.16 68.99 70.57 72.12 72.42 72.20 72.55 72.62 73.26 74.16 74.91 75.42 74.36 74.26 74.47 74.71 74.67 73.58 74.38 74.12 74.30 75.66 76.83
50.05 51.43 53.80 55.07 54.19 58.15 57.85 56.28 51.10 50.07 50.61 51.06 57.19 55.41 57.76 61.28 63.48 65.37 66.99 67.16 68.28 67.62 67.93 69.52 70.60 71.40 72.00 72.42 73.05 73.37 74.18 74.22 74.99 74.69 73.58 74.09 74.57 75.46 75.49 75.70 74.60 75.38 74.26 75.20
46.52 44.96 51.66 54.27 54.05 54.73 55.65 55.85 51.81 47.32 48.50 52.05 56.76 52.88 57.51 61.91 63.17 64.30 67.30 68.28 68.85 68.41 67.70 68.91 70.42 71.28 71.79 72.49 73.23 73.65 73.90 74.50 74.96 74.39 73.96 74.77 75.61 74.72 74.80 75.55 75.06 74.84 74.64 75.34
47.49 47.16 52.75 53.91 55.09 56.41 55.49 54.44 57.65 53.29 55.66 52.69 54.51 56.89 60.38 61.98 62.63 62.79 65.85 67.72 67.66 68.36 67.70 68.41 70.07 71.31 72.06 72.59 73.12 73.52 74.05 74.92 75.36 74.72 74.95 75.09 75.89 75.96 75.49 76.49 76.70 75.79 77.10 76.04
51.55 47.41 51.39 52.43 54.68 55.72 56.78 58.61 52.87 53.50 48.46 48.02 52.41 54.05 55.19 59.79 60.62 63.64 65.99 67.12 67.73 68.61 68.10 68.73 69.42 70.89 72.14 72.86 73.53 74.14 74.49 74.78 75.36 75.47 75.39 75.37 75.74 76.50 76.71 76.75 76.54 76.88 76.90 77.55
52.16 50.20 49.98 52.21 50.99 51.07 52.46 54.76 55.70 55.02 54.77 50.80 49.52 52.91 60.63 60.35 61.13 63.82 66.73 67.66 67.90 68.23 67.66 68.73 69.34 70.87 72.03 72.79 73.31 73.63 73.94 74.50 75.10 75.55 75.74 75.83 75.85 76.48 76.75 76.41 76.70 76.88 77.56 77.83
52.56 50.65 47.64 48.57 52.97 54.78 54.58 55.22 56.37 51.79 52.40 54.44 54.11 53.67 61.03 61.27 61.84 65.61 67.06 66.86 68.48 68.31 67.79 68.56 69.69 70.80 71.53 72.21 72.90 73.27 74.05 74.41 75.29 75.83 76.15 75.71 76.20 76.29 76.07 76.42 76.66 77.42 77.45 77.86
52.32 49.05 45.89 47.85 50.08 52.78 52.59 54.62 56.71 56.74 57.22 54.07 51.57 54.08 61.37 62.79 64.43 66.08 66.64 66.52 68.73 68.90 67.79 68.74 70.02 70.69 71.48 72.23 72.75 73.30 74.14 74.47 75.42 75.99 75.82 75.89 75.80 75.93 76.01 76.31 77.19 77.56 77.75 77.44
52.55 50.01 48.78 45.41 48.63 50.85 49.93 52.49 55.10 55.92 53.57 54.84 54.64 56.22 59.13 60.19 62.47 65.58 66.58 66.46 68.48 69.27 68.39 69.17 70.38 72.21 72.71 73.86 73.81 74.19 74.06 74.76 75.30 75.76 75.73 75.70 75.64 75.86 76.11 77.16 77.57 77.60 77.72 76.80
50.95 48.33 50.43 50.62 51.33 51.19 50.78 51.06 53.00 54.77 55.76 54.26 56.67 56.50 59.80 61.35 61.71 65.61 67.24 66.21 67.70 69.22 69.54 69.52 70.49 72.17 73.02 74.30 74.65 75.14 74.78 75.60 75.57 75.53 75.48 76.19 76.45 76.74 77.03 77.29 77.68 78.06 77.52 76.13
50.09 47.96 50.89 49.01 50.80 50.55 49.49 50.99 52.38 54.36 55.93 56.79 57.65 57.59 61.88 63.26 63.04 65.49 67.03 67.40 67.35 68.70 69.50 70.62 71.44 72.65 73.53 74.90 74.99 75.33 75.71 76.77 77.60 76.65 75.67 76.82 76.76 76.86 77.05 77.46 77.75 77.30 76.50 74.63
46.91 47.83 48.63 46.46 50.03 49.82 47.38 50.74 51.66 53.43 56.35 57.22 55.26 59.68 62.12 61.55 62.51 63.60 65.08 67.83 68.01 68.66 69.95 70.83 72.03 74.10 75.06 75.45 77.24 76.09 76.83 76.90 76.97 76.39 76.56 76.64 77.12 76.61 77.02 77.43 77.38 76.25 74.49 71.63
45.20 45.40 46.79 46.79 49.42 42.37 50.65 54.48 54.15 53.54 54.69 57.68 58.89 60.56 62.00 62.62 63.91 64.38 65.34 64.80 68.64 69.37 69.67 71.57 72.57 74.71 76.44 76.01 76.62 77.14 76.22 77.81 76.03 76.02 76.39 77.11 77.47 76.92 77.41 77.33 76.32 74.94 72.43 69.34
47.22 45.43 44.39 44.92 46.38 49.03 50.34 52.59 52.80 52.53 53.17 57.38 57.86 59.60 61.15 62.67 63.33 63.90 65.71 67.29 67.07 69.07 71.82 73.43 73.67 75.45 77.11 76.31 77.80 78.14 77.37 76.45 75.79 75.96 76.78 76.98 77.26 76.84 76.88 76.95 75.55 73.17 70.50 67.24
46.52 47.33 44.01 46.39 44.28 43.24 51.51 53.91 55.80 55.78 49.93 57.15 58.26 59.56 60.35 61.71 58.08 61.27 66.09 67.19 68.17 68.58 70.17 72.07 72.98 73.99 75.24 77.63 78.41 78.05 77.29 76.81 76.36 76.84 77.78 77.81 77.83 77.35 77.00 77.03 74.01 72.44 69.76 65.87
43.31 44.05 41.29 42.64 44.89 49.08 54.26 55.51 56.54 49.04 51.63 58.03 58.36 59.38 60.37 60.27 62.51 64.91 65.80 67.91 68.51 69.19 70.65 72.66 73.00 73.40 75.04 77.62 77.95 77.19 77.36 76.51 77.32 76.66 76.93 77.68 77.50 78.00 77.97 76.80 72.43 70.16 67.68 63.75
44.50 43.08 42.40 44.19 43.69 43.24 57.61 55.58 52.59 58.85 62.67 61.18 60.31 59.98 60.31 62.22 63.09 64.19 65.89 68.24 68.71 69.66 71.02 72.49 72.34 72.61 76.19 77.45 77.34 76.81 76.35 78.13 78.09 77.92 77.05 77.28 77.84 76.86 76.05 73.51 70.26 68.69 65.21 61.24
45.87 48.47 47.65 47.77 47.79 56.17 58.45 59.17 61.28 62.75 62.99 64.24 64.80 65.31 63.17 61.92 62.13 63.54 65.84 66.87 68.47 69.52 71.36 72.26 71.95 73.37 74.45 77.24 76.97 75.90 77.06 78.60 78.15 78.31 78.14 77.33 77.18 75.75 74.09 71.88 69.14 66.22 63.92 59.83
51.78 53.61 51.33 50.99 53.51 56.84 57.50 60.84 61.45 63.43 63.27 64.62 65.62 66.21 66.28 64.23 64.34 64.29 66.64 68.39 69.35 70.16 71.08 73.18 71.71 71.96 74.76 75.36 75.57 76.21 78.29 78.63 77.86 76.80 76.80 76.30 74.98 73.85 72.20 71.23 69.16 67.80 64.95 63.92
51.91 53.71 52.41 54.38 56.30 56.02 59.42 58.96 60.60 62.14 63.99 64.57 65.69 66.22 66.83 66.59 64.22 65.85 68.20 72.29 70.81 73.34 72.57 73.89 73.53 74.72 74.51 74.50 74.86 75.55 77.16 77.46 75.92 75.49 75.16 74.27 73.79 71.04 70.13 71.64 70.25 69.05 68.48 65.09
51.77 49.87 51.04 50.48 51.83 52.42 54.67 58.82 61.75 62.23 62.39 65.06 66.63 66.92 67.84 68.42 65.47 65.92 67.48 69.40 71.82 71.60 73.09 74.48 74.56 74.29 74.93 74.85 74.64 77.02 77.16 77.33 76.21 74.14 73.54 72.92 71.88 71.10 69.64 66.25 64.14 49.59 53.45 49.58
MSLP
1003.48 1002.88 1001.53 1001.14 1001.21 1000.53 1000.70 1000.83 1000.91 1001.41 1002.44 1003.28 1003.43 1003.95 1005.33 1007.44 1008.16 1008.87 1009.97 1011.00 1011.21 1011.40 1011.86 1012.48 1013.24 1013.78 1014.32 1015.00 1015.64 1016.19 1016.63 1017.01 1017.33 1017.42 1017.24 1017.13 1016.94 1016.97 1017.09 1017.16 1017.65 1017.77 1017.71 1017.67
1002.07 1001.06 1000.83 1000.86 1000.86 1000.88 1000.91 1000.72 1000.82 1001.22 1002.20 1002.63 1002.15 1002.75 1003.52 1005.50 1006.46 1007.12 1007.97 1008.87 1009.59 1010.29 1011.02 1011.86 1012.63 1013.31 1013.95 1014.55 1015.20 1015.85 1016.33 1016.86 1017.26 1017.22 1017.32 1017.13 1017.16 1017.07 1017.16 1017.21 1017.59 1017.64 1017.72 1017.66
1000.17 1000.15 1000.61 1000.36 1000.34 1000.66 1000.42 1000.35 1000.44 1000.95 1001.70 1002.10 1001.88 1001.23 1002.00 1003.77 1005.17 1005.86 1006.67 1007.51 1008.32 1008.94 1009.83 1010.88 1011.83 1012.59 1013.31 1013.93 1014.66 1015.32 1016.00 1016.53 1017.00 1017.06 1017.27 1017.47 1017.51 1017.49 1017.27 1017.07 1017.09 1017.20 1017.64 1017.60
999.81 999.94 999.75 999.73 999.79 1000.06 999.53 1000.11 1000.50 1000.75 1001.08 1000.08 1001.13 999.58 1000.37 1001.74 1003.26 1004.36 1005.20 1006.00 1006.88 1007.85 1008.93 1009.90 1010.96 1011.88 1012.53 1013.24 1014.04 1014.90 1015.58 1016.19 1016.65 1017.00 1016.92 1017.07 1016.81 1016.61 1016.56 1017.00 1017.06 1017.33 1017.49 1017.41
999.27 999.22 999.18 999.22 998.97 999.36 999.18 999.72 1000.28 1000.49 1000.43 1000.18 999.95 999.91 998.47 999.90 1001.31 1002.33 1003.51 1004.56 1005.54 1006.67 1007.76 1008.70 1009.94 1010.98 1011.84 1012.60 1013.27 1014.13 1014.98 1015.68 1016.19 1016.49 1016.77 1016.87 1017.04 1016.61 1016.88 1016.88 1017.25 1017.41 1017.37 1017.23
999.24 999.33 998.95 998.43 998.77 998.88 999.45 1000.05 1000.24 1000.34 1000.04 999.26 999.08 999.03 997.12 997.66 998.76 1000.12 1001.91 1003.20 1004.38 1005.45 1006.72 1007.77 1008.98 1010.12 1011.03 1011.84 1012.55 1013.29 1014.19 1015.04 1015.63 1016.04 1016.40 1016.75 1016.68 1016.78 1016.61 1016.78 1016.82 1016.74 1016.64 1016.65
999.50 998.47 998.93 998.53 998.34 998.50 999.05 999.36 999.23 999.31 998.99 998.29 998.38 998.34 996.50 997.00 997.75 998.38 999.75 1001.54 1003.12 1004.38 1005.66 1006.83 1007.87 1008.96 1010.03 1010.81 1011.64 1012.49 1013.40 1014.26 1014.89 1015.36 1015.75 1016.24 1016.61 1016.80 1016.85 1016.94 1016.61 1016.58 1016.31 1016.26
998.01 997.99 998.14 998.07 997.62 997.64 998.31 998.20 997.71 997.78 998.02 997.43 998.46 997.36 996.40 996.65 996.97 997.49 998.19 1000.16 1002.04 1003.30 1004.52 1005.73 1006.80 1008.00 1009.03 1009.91 1010.86 1011.73 1012.54 1013.44 1014.04 1014.57 1015.09 1015.63 1016.09 1016.22 1016.26 1016.43 1016.48 1016.36 1016.17 1016.17
997.17 996.58 997.29 997.52 997.61 997.49 997.48 997.41 997.48 997.39 997.63 997.15 996.39 996.66 996.27 995.93 996.44 996.74 997.64 999.09 1000.91 1002.34 1003.44 1004.76 1005.87 1007.01 1008.05 1009.00 1009.94 1010.85 1011.69 1012.58 1013.14 1013.80 1014.47 1015.01 1015.51 1015.84 1015.54 1015.93 1016.24 1016.16 1016.31 1016.24
997.19 996.85 996.69 997.29 997.59 996.96 996.32 997.41 997.20 996.99 997.07 996.51 995.79 995.53 994.98 995.38 995.43 996.53 997.29 998.61 1000.27 1001.74 1002.73 1003.99 1005.00 1006.17 1007.20 1008.19 1009.16 1010.16 1010.93 1011.70 1012.36 1013.04 1013.71 1014.30 1014.83 1015.25 1015.50 1015.73 1015.89 1015.94 1016.06 1016.31
997.83 997.16 996.30 996.84 996.53 995.89 996.59 995.99 996.52 996.75 996.71 995.75 995.31 994.42 994.51 994.88 995.41 996.14 997.07 998.55 999.86 1000.91 1001.95 1003.16 1004.15 1005.42 1006.50 1007.37 1008.25 1009.18 1010.10 1010.87 1011.62 1012.32 1012.97 1013.63 1014.04 1014.51 1014.92 1015.07 1015.32 1015.57 1015.79 1016.06
998.38 997.40 996.09 995.79 995.96 996.06 996.01 995.81 996.12 995.68 996.14 995.92 995.02 993.75 994.22 995.00 995.32 995.82 996.89 998.29 999.62 1000.42 1001.41 1002.53 1003.55 1004.72 1005.87 1006.56 1007.35 1008.25 1009.16 1009.99 1010.75 1011.60 1012.39 1012.96 1013.43 1013.81 1014.04 1014.41 1014.72 1015.02 1015.32 1015.62
999.87 997.91 996.55 995.46 995.48 995.60 994.66 995.05 995.19 995.66 995.39 995.69 995.18 993.83 994.18 994.76 995.41 995.80 996.67 998.04 999.32 1000.11 1000.95 1002.06 1003.20 1004.16 1005.12 1005.99 1006.66 1007.48 1008.41 1009.14 1009.99 1010.92 1011.59 1012.11 1012.55 1012.95 1013.27 1013.63 1014.12 1014.44 1014.89 1015.50
1002.75 999.03 996.42 994.31 993.80 994.29 994.97 994.63 994.63 994.89 994.59 994.40 994.53 993.83 994.13 994.23 994.96 996.03 996.51 997.76 998.95 999.88 1000.65 1001.62 1002.78 1003.73 1004.63 1005.46 1006.18 1006.98 1007.72 1008.44 1009.20 1009.99 1010.66 1011.18 1011.62 1012.02 1012.45 1013.03 1013.49 1013.97 1014.55 1015.20
1002.32 999.71 997.60 995.73 994.40 994.29 994.56 994.58 994.17 993.83 994.20 993.75 993.52 993.88 993.37 994.02 994.83 995.79 996.68 997.67 998.59 999.50 1000.20 1000.98 1002.03 1003.04 1004.01 1004.82 1005.57 1006.37 1007.01 1007.64 1008.27 1009.14 1009.76 1010.27 1010.82 1011.39 1011.83 1012.29 1012.87 1013.52 1014.36 1015.00
1003.77 1000.87 998.84 997.00 995.41 994.65 993.59 993.91 993.76 993.88 993.83 993.68 993.55 993.03 993.60 994.10 994.74 995.72 996.60 997.27 998.12 998.73 999.36 1000.18 1001.24 1002.26 1003.07 1003.78 1004.48 1005.31 1006.03 1006.65 1007.50 1008.21 1008.88 1009.50 1010.08 1010.65 1011.21 1011.77 1012.43 1013.29 1014.12 1015.04
1004.88 1002.35 1000.32 997.65 996.56 995.31 993.58 992.57 993.05 993.30 993.73 993.48 992.77 992.96 993.38 993.85 994.55 995.01 995.59 996.56 997.26 997.88 998.66 999.53 1000.15 1000.73 1001.61 1002.44 1003.32 1004.03 1004.94 1005.90 1006.70 1007.52 1008.24 1008.82 1009.41 1009.92 1010.53 1011.23 1011.97 1012.92 1014.01 1015.23
1005.96 1004.47 1001.90 998.11 996.96 994.51 993.18 993.33 992.99 992.96 993.11 993.16 993.20 992.91 993.50 993.74 994.22 994.48 994.80 995.26 996.28 996.80 997.41 998.27 999.04 999.96 1000.67 1001.30 1002.21 1003.03 1003.90 1004.93 1005.79 1006.69 1007.29 1007.89 1008.61 1009.41 1010.15 1010.82 1011.79 1012.78 1013.90 1014.94
1005.78 1004.93 1001.78 998.99 996.24 995.01 993.58 992.92 992.95 992.89 993.18 993.47 993.26 993.23 993.52 993.69 993.89 993.99 994.35 995.02 995.27 995.88 996.68 997.22 997.94 998.58 999.59 1000.35 1001.05 1002.09 1002.97 1003.92 1004.89 1005.33 1006.13 1007.00 1007.91 1008.68 1009.42 1010.10 1011.24 1012.46 1013.54 1014.65
1004.61 1004.83 1003.17 999.99 996.96 994.33 993.60 993.29 993.60 993.60 992.80 993.72 993.93 993.66 993.55 993.96 993.51 993.55 994.08 994.72 994.90 995.14 995.74 996.37 997.19 998.16 999.00 999.55 1000.61 1001.41 1001.85 1002.66 1003.26 1003.97 1004.91 1006.06 1007.04 1007.88 1008.66 1009.56 1010.78 1012.09 1013.34 1014.45
1003.07 1003.41 1002.36 1000.75 998.08 995.50 994.62 993.82 994.02 993.84 993.22 993.58 993.79 993.84 993.87 993.34 993.36 993.57 993.40 993.83 994.22 994.57 995.36 996.15 996.73 997.10 997.33 998.53 999.43 1000.33 1001.12 1001.45 1002.09 1003.53 1004.51 1005.53 1006.36 1007.11 1007.95 1009.26 1010.74 1012.02 1013.11 1014.45
1001.53 1001.68 1001.09 1000.76 998.91 997.02 996.53 995.41 995.26 995.94 994.77 993.79 993.30 993.22 993.36 993.56 993.63 993.53 993.77 993.78 993.96 994.14 994.75 995.65 996.08 996.47 997.12 997.92 998.65 999.44 1000.08 1000.71 1002.05 1003.05 1004.05 1005.01 1005.78 1006.42 1007.60 1009.12 1010.52 1011.73 1012.84 1014.10
1001.01 1000.12 999.35 999.52 998.59 997.53 997.78 997.90 997.61 997.25 996.71 995.75 995.15 994.17 993.22 993.21 993.01 992.80 992.97 993.26 993.45 993.63 994.16 994.94 995.34 995.98 996.61 997.46 997.97 998.34 998.84 1000.43 1001.46 1002.49 1003.44 1004.46 1005.45 1006.33 1007.64 1008.88 1010.06 1011.32 1012.54 1013.47
1001.44 1001.35 1000.37 1000.24 999.46 999.27 999.46 999.11 999.05 998.53 998.05 997.03 996.45 995.53 994.71 993.98 992.89 992.27 992.23 992.43 992.61 992.92 993.25 994.14 994.73 995.33 995.95 996.84 997.59 998.03 999.02 1000.06 1000.88 1001.92 1003.10 1004.13 1005.14 1006.18 1007.55 1008.59 1009.71 1010.33 1011.36 1012.18
1002.53 1002.21 1001.39 1000.91 1000.61 1000.02 998.99 1000.01 999.69 998.98 998.23 997.28 996.50 995.65 994.65 993.92 992.89 992.44 991.66 991.81 992.04 992.37 992.81 993.34 994.08 994.59 995.30 996.48 997.31 997.66 998.53 999.57 1000.36 1001.34 1002.56 1003.84 1004.81 1006.13 1007.24 1008.02 1008.80 1009.46 1010.44 1010.98
1003.72 1003.71 1002.46 1001.77 1003.20 1002.70 1001.66 1000.87 999.84 998.82 997.71 996.88 995.89 994.82 994.36 993.59 992.53 992.18 991.57 991.45 991.95 992.06 992.48 993.06 993.75 994.46 994.96 996.18 996.92 997.49 998.15 999.01 999.75 1000.61 1002.00 1003.06 1004.24 1005.52 1006.68 1007.96 1009.29 1010.12 1010.42 1011.56
Wind_Speed
19 15 19 20 17 17 7 8 8 4 3 10 11 8 15 17 17 19 21 21 21 21 19 19 18 17 15 15 15 14 12 9 7 7 6 5 5 4 3 3 1 2 4 5
19 22 23 20 18 16 14 11 11 4 3 11 8 10 11 19 19 18 20 21 22 21 20 20 20 19 18 17 16 15 13 12 9 7 5 3 2 2 3 3 2 0 3 5
26 21 23 21 17 17 16 14 10 11 7 12 9 15 13 17 18 18 19 20 21 22 22 22 21 20 19 18 18 16 15 12 11 9 6 4 4 5 5 4 3 4 3 4
27 24 24 23 23 20 19 14 11 7 10 8 5 8 14 18 21 21 20 20 21 22 22 21 21 21 20 19 18 17 16 14 12 12 9 8 6 5 2 2 1 3 2 4
20 26 22 22 26 22 18 6 11 10 11 12 11 8 6 16 17 23 23 22 21 22 23 23 22 21 21 19 18 17 17 15 14 13 12 9 10 6 6 4 2 3 3 3
22 15 21 28 24 23 17 8 8 9 11 12 15 8 8 13 16 20 23 23 22 22 22 22 22 21 19 19 18 17 17 16 15 15 14 13 10 9 6 5 5 5 3 2
21 22 17 17 25 21 19 18 11 11 11 11 7 8 15 3 6 9 23 25 24 22 22 22 22 21 20 21 20 17 18 17 16 17 16 14 13 12 10 8 7 5 5 3
20 24 23 17 26 20 26 22 13 11 13 12 7 8 6 2 4 6 13 24 24 23 21 22 24 22 21 21 20 19 18 17 16 16 16 14 14 10 9 9 7 6 5 4
21 29 28 22 21 26 23 26 22 13 8 12 12 12 12 14 1 7 15 24 25 23 22 22 23 22 21 21 21 20 18 17 16 16 14 14 13 13 10 9 7 7 6 5
14 18 19 26 19 25 23 21 22 12 18 14 13 10 8 9 2 8 15 23 23 22 22 21 21 21 20 20 19 20 19 17 16 16 14 12 13 12 11 10 11 9 6 5
23 16 22 23 21 23 21 20 21 18 15 11 13 12 13 3 4 11 16 21 23 23 21 20 19 19 19 19 19 19 18 18 16 15 14 13 13 13 12 11 11 9 8 7
25 13 16 27 26 25 26 23 26 16 20 14 11 7 8 2 2 11 18 19 20 21 20 19 19 19 18 18 18 18 17 17 16 15 14 15 13 13 13 12 11 10 9 8
14 14 17 19 24 27 27 28 24 23 17 20 15 7 7 6 5 12 18 19 19 19 20 19 18 18 18 18 17 17 17 17 16 15 15 15 14 14 14 12 11 10 10 10
8 16 23 19 22 21 28 27 28 27 19 18 20 19 12 4 8 11 17 19 18 17 18 18 17 16 16 16 17 16 16 17 16 16 16 15 16 15 13 12 12 11 11 11
7 17 21 25 19 23 26 29 29 28 27 24 19 22 14 6 3 10 11 16 19 20 20 20 19 18 18 17 17 17 17 16 17 16 16 15 15 14 13 13 13 13 13 12
11 9 16 21 23 13 28 29 29 28 28 25 26 19 19 11 4 8 14 16 18 19 21 21 21 20 20 19 18 18 18 17 15 16 17 15 15 14 14 14 14 13 13 12
8 5 9 19 21 22 20 26 30 27 27 27 26 22 16 12 9 10 13 16 19 19 20 21 22 21 20 21 18 18 17 16 16 16 16 15 15 16 15 15 15 15 14 13
9 8 7 11 20 29 16 19 21 23 27 27 24 23 21 14 13 14 11 11 17 19 21 21 20 18 19 19 19 18 18 16 18 17 17 16 16 15 15 15 15 14 14 14
15 9 5 10 16 15 21 20 23 19 19 18 23 26 21 16 19 18 14 11 13 17 17 18 19 21 17 19 18 17 17 18 18 19 17 17 17 16 17 17 15 13 15 13
19 14 10 8 16 23 12 20 8 18 21 20 19 18 17 20 13 12 16 16 16 16 14 16 17 17 19 18 17 17 19 19 19 18 17 16 16 16 17 17 15 15 14 14
15 12 15 12 10 10 4 11 15 20 10 17 21 20 19 19 14 14 13 14 16 14 14 14 15 17 20 17 18 19 17 20 17 15 15 15 16 16 16 15 14 15 15 14
14 11 10 13 13 12 10 8 15 7 15 15 9 22 21 20 19 19 16 12 13 12 12 15 14 15 14 16 17 18 19 14 14 14 15 16 16 14 13 17 14 16 16 16
9 11 8 11 12 2 8 12 13 11 13 14 16 19 12 20 24 23 19 19 17 16 13 13 13 12 14 16 17 19 17 15 16 16 15 16 16 15 15 16 16 14 15 13
6 2 6 1 8 7 12 10 13 13 17 16 16 18 17 18 20 23 20 17 15 15 14 13 13 15 15 15 17 15 14 16 18 17 17 16 17 15 15 13 14 14 15 14
5 3 1 10 7 17 7 18 18 18 16 19 18 17 18 17 19 20 18 15 14 12 12 12 13 13 14 14 15 16 17 18 18 18 17 17 15 15 14 14 12 13 14 14
5 7 3 6 11 9 14 18 20 20 20 19 19 19 17 17 18 15 15 13 9 10 12 13 13 14 14 15 16 16 18 18 18 19 16 15 15 14 12 11 8 19 13 10
Wind_Direction
199 214 215 210 218 256 305 248 250 199 140 221 245 241 165 187 197 184 183 190 197 197 192 189 193 195 192 190 189 191 197 195 200 193 203 203 224 210 241 254 311 315 20 23
202 221 216 221 214 228 246 239 243 257 229 226 259 244 196 185 202 195 193 190 195 192 189 192 193 197 200 193 195 196 205 198 204 196 216 263 289 249 311 300 291 297 17 16
216 213 221 215 212 217 230 239 242 261 162 227 272 253 188 187 199 200 199 197 198 196 192 191 193 198 199 200 197 200 204 206 207 222 204 205 234 236 233 213 215 104 13 354
225 221 205 211 214 211 229 213 255 226 226 255 209 293 180 185 197 198 199 197 195 196 195 188 194 198 202 202 198 202 205 207 207 206 223 232 256 250 199 244 70 292 332 338
209 216 205 211 215 205 232 186 220 235 242 272 217 253 250 177 196 202 202 198 196 192 192 189 190 192 200 199 199 200 204 210 217 205 227 214 230 235 232 243 255 273 242 285
230 205 210 221 215 212 217 198 216 237 252 246 240 233 248 174 220 201 200 196 196 190 192 195 189 189 196 198 200 200 202 209 210 212 208 221 239 238 250 228 273 267 276 296
216 208 222 231 212 208 202 201 212 215 217 243 115 235 254 166 150 202 193 194 190 188 189 190 190 192 193 197 199 199 200 206 209 209 211 213 222 229 240 245 251 292 277 283
202 210 202 195 224 193 210 219 230 209 237 219 152 239 214 126 52 206 203 186 183 187 185 188 189 191 192 197 199 201 196 203 203 207 210 212 214 223 227 229 260 262 269 272
203 217 185 211 207 209 199 218 227 243 220 275 176 223 260 249 268 228 187 173 179 186 182 186 188 188 191 196 198 201 201 201 203 206 206 209 209 222 233 241 236 240 244 260
207 220 192 203 205 227 221 209 222 225 239 221 231 231 251 180 291 178 176 173 175 182 181 183 187 185 190 194 196 200 201 203 204 206 204 207 210 215 222 228 234 249 260 234
235 223 192 200 205 200 205 207 219 219 230 230 236 208 223 247 321 184 173 173 174 179 181 182 184 181 189 190 194 197 201 201 204 205 205 210 211 212 216 223 226 230 225 214
222 212 238 198 206 219 204 207 208 225 200 247 284 204 106 37 276 177 168 171 174 178 179 178 180 178 185 192 191 193 198 202 203 201 204 206 210 209 215 220 219 219 211 197
216 223 209 204 207 205 213 209 209 215 225 203 234 229 115 99 75 175 164 168 172 182 176 175 177 181 184 191 192 195 197 199 198 198 201 206 205 209 216 215 212 207 199 187
266 237 227 212 209 198 213 215 214 212 217 210 212 233 163 151 72 173 168 167 172 180 175 175 180 185 188 190 191 195 197 199 196 197 202 203 207 208 208 207 205 197 182 183
314 230 225 239 217 206 199 218 220 216 218 225 206 221 223 193 66 154 183 169 173 179 181 183 186 187 191 194 194 197 201 199 197 197 202 203 206 204 205 199 197 189 185 178
329 237 242 228 243 237 209 208 219 212 226 222 233 212 224 225 207 145 178 182 190 190 190 192 193 192 195 197 198 197 202 200 195 196 201 203 200 200 201 196 191 175 178 166
310 331 228 224 226 231 234 216 209 219 217 222 226 225 230 210 218 218 177 190 200 198 199 198 200 197 195 198 195 200 201 196 195 199 202 201 199 200 197 191 181 179 168 162
264 309 277 228 207 224 230 216 231 220 222 222 232 230 230 234 222 229 219 215 207 217 205 206 205 202 204 202 197 201 197 194 194 199 204 202 197 197 191 188 183 174 167 169
228 261 266 243 216 218 223 214 209 216 223 245 235 239 235 235 240 241 245 232 227 216 219 221 214 207 201 200 197 194 193 189 196 202 201 198 194 192 188 185 177 171 167 160
211 217 259 204 235 223 217 204 217 229 234 216 227 243 235 240 231 238 222 225 229 232 224 225 220 216 203 203 195 192 192 191 199 198 194 191 188 190 187 180 168 168 164 158
185 206 224 227 252 246 1 241 205 218 237 218 221 224 227 232 225 251 252 209 229 227 229 221 213 209 211 197 187 196 196 204 198 190 187 185 185 187 183 165 161 165 163 149
181 196 193 226 224 235 3 275 242 338 319 299 266 226 225 231 237 237 245 237 231 222 225 205 200 206 198 192 189 193 204 191 183 177 178 181 180 182 170 158 158 163 155 154
217 222 227 208 208 255 6 335 323 327 323 323 324 325 289 237 233 235 238 234 240 236 214 206 206 195 193 192 196 197 200 177 172 171 175 174 173 177 153 160 161 159 160 156
185 342 247 178 207 310 312 11 356 336 320 311 306 298 288 283 264 242 239 234 235 229 215 206 199 200 191 193 199 198 170 167 164 166 169 168 169 161 161 166 168 165 169 169
356 250 230 249 31 320 142 351 337 321 312 303 295 288 286 275 267 257 248 235 222 222 213 198 203 197 190 187 195 185 166 165 168 166 166 167 165 161 163 173 179 174 178 176
30 16 324 45 12 329 322 320 329 321 317 307 296 291 283 275 266 259 260 254 248 226 207 198 193 194 180 181 185 172 168 169 165 161 163 169 157 160 166 153 128 42 83 93